TimeEDT,TemperatureF,Dew PointF,Humidity,Sea Level PressureIn,VisibilityMPH,Wind Direction,Wind SpeedMPH,Gust SpeedMPH,PrecipitationIn,Events,Conditions,WindDirDegrees,DateUTC
12:00 AM,64.4,55.4,73,30.01,15.0,SSW,11.5,-,N/A,,Overcast,200,2012-10-05 04:00:00
1:00 AM,64.4,55.4,73,30.00,15.0,SSW,10.4,-,N/A,,Mostly Cloudy,200,2012-10-05 05:00:00
2:00 AM,65,56,65,29.99,15,SW,9.2,,,,Overcast,230,2012-10-05 06:00:00
2:00 AM,64.4,55.4,73,29.99,15.0,SW,8.1,-,N/A,Rain,Light Rain,220,2012-10-05 06:00:00
3:00 AM,64.4,55.4,73,30.00,15.0,WSW,9.2,-,N/A,,Mostly Cloudy,240,2012-10-05 07:00:00
4:00 AM,62.6,55.4,77,29.99,15.0,WSW,10.4,-,N/A,Rain,Light Rain,250,2012-10-05 08:00:00
5:00 AM,60.8,57.2,88,29.99,15.0,WSW,9.2,-,N/A,,Mostly Cloudy,250,2012-10-05 09:00:00
6:00 AM,62.6,57.2,82,30.00,15.0,WSW,15.0,20.7,N/A,,Overcast,240,2012-10-05 10:00:00
7:00 AM,60.8,53.6,77,30.01,15.0,West,16.1,-,N/A,,Overcast,280,2012-10-05 11:00:00
8:00 AM,57.2,50.0,77,30.02,15.0,West,10.4,-,N/A,,Overcast,270,2012-10-05 12:00:00
9:00 AM,59.0,51.8,77,30.03,15.0,West,15.0,-,N/A,,Mostly Cloudy,270,2012-10-05 13:00:00
10:00 AM,57.2,50.0,77,30.03,15.0,West,15.0,-,N/A,,Mostly Cloudy,280,2012-10-05 14:00:00
11:00 AM,59.0,48.2,67,30.03,15.0,West,11.5,-,N/A,,Mostly Cloudy,260,2012-10-05 15:00:00
12:00 PM,59.0,48.2,67,30.02,15.0,WSW,13.8,-,N/A,,Overcast,250,2012-10-05 16:00:00
1:00 PM,59.0,46.4,63,30.01,15.0,West,11.5,19.6,N/A,,Overcast,270,2012-10-05 17:00:00
2:00 PM,59,46,52,30.01,15,West,11.5,,,,Overcast,260,2012-10-05 18:00:00
2:00 PM,59.0,46.4,63,30.01,15.0,West,12.7,-,N/A,,Overcast,280,2012-10-05 18:00:00
3:00 PM,59.0,44.6,59,30.00,15.0,WSW,9.2,-,N/A,,Overcast,250,2012-10-05 19:00:00
4:00 PM,59.0,44.6,59,29.98,15.0,West,11.5,-,N/A,,Overcast,260,2012-10-05 20:00:00
5:00 PM,57.2,42.8,59,29.96,15.0,WSW,10.4,-,N/A,,Overcast,250,2012-10-05 21:00:00
6:00 PM,57.2,41.0,55,29.96,15.0,WSW,11.5,-,N/A,Rain,Light Rain Showers,250,2012-10-05 22:00:00
7:00 PM,53.6,44.6,72,29.95,12.0,West,8.1,-,N/A,Rain,Light Rain Showers,260,2012-10-05 23:00:00
8:00 PM,51,45,74,29.97,47,West,8.1,,,,Overcast,260,2012-10-06 00:00:00
8:00 PM,50.0,44.6,82,29.97,15.0,WSW,5.8,-,N/A,Rain,Light Rain Showers,250,2012-10-06 00:00:00
9:00 PM,48.2,44.6,87,29.97,12.0,WSW,9.2,-,N/A,Rain,Light Rain Showers,250,2012-10-06 01:00:00
10:00 PM,46.4,44.6,93,29.94,5.0,West,6.9,-,N/A,Rain,Light Rain,260,2012-10-06 02:00:00
11:00 PM,46.4,44.6,93,29.94,3.0,SW,9.2,-,N/A,Rain,Light Rain,230,2012-10-06 03:00:00
11:38 PM,46.4,44.6,93,29.92,3.0,West,6.9,-,N/A,Rain,Light Rain,260,2012-10-06 03:38:00